TimeCDT,TemperatureF,Dew PointF,Humidity,Sea Level PressureIn,VisibilityMPH,Wind Direction,Wind SpeedMPH,Gust SpeedMPH,PrecipitationIn,Events,Conditions,WindDirDegrees,DateUTC
12:53 AM,55.0,52.0,89,29.82,10.0,WNW,8.1,-,N/A,,Clear,290,2013-06-11 05:53:00
1:53 AM,53.1,51.1,93,29.83,10.0,WNW,5.8,-,N/A,,Clear,300,2013-06-11 06:53:00
2:53 AM,51.1,50.0,96,29.85,10.0,WNW,4.6,-,N/A,,Clear,290,2013-06-11 07:53:00
3:53 AM,51.1,48.9,92,29.86,10.0,West,4.6,-,N/A,,Clear,280,2013-06-11 08:53:00
4:53 AM,50.0,48.0,93,29.86,10.0,West,3.5,-,N/A,,Clear,280,2013-06-11 09:53:00
5:53 AM,48.9,48.0,97,29.86,10.0,Calm,Calm,-,N/A,,Scattered Clouds,0,2013-06-11 10:53:00
6:53 AM,53.1,51.1,93,29.86,10.0,Calm,Calm,-,N/A,,Partly Cloudy,0,2013-06-11 11:53:00
7:53 AM,59.0,52.0,78,29.87,10.0,West,3.5,-,N/A,,Partly Cloudy,270,2013-06-11 12:53:00
8:53 AM,64.0,54.0,70,29.89,10.0,West,4.6,-,N/A,,Scattered Clouds,280,2013-06-11 13:53:00
9:53 AM,68.0,52.0,56,29.88,10.0,WSW,4.6,-,N/A,,Scattered Clouds,250,2013-06-11 14:53:00
10:53 AM,70.0,48.9,47,29.87,10.0,SSW,4.6,-,N/A,,Partly Cloudy,210,2013-06-11 15:53:00
11:53 AM,73.0,48.9,42,29.87,10.0,SSE,5.8,-,N/A,,Partly Cloudy,150,2013-06-11 16:53:00
12:53 PM,75.0,50.0,41,29.87,10.0,WSW,5.8,-,N/A,,Partly Cloudy,250,2013-06-11 17:53:00
1:53 PM,77.0,45.0,32,29.87,10.0,West,5.8,-,N/A,,Partly Cloudy,280,2013-06-11 18:53:00
2:53 PM,78.1,48.9,36,29.86,10.0,WNW,11.5,-,N/A,,Partly Cloudy,290,2013-06-11 19:53:00
3:53 PM,79.0,51.1,38,29.86,10.0,Variable,6.9,16.1,N/A,,Partly Cloudy,0,2013-06-11 20:53:00
4:53 PM,80.1,48.9,34,29.85,10.0,West,8.1,-,N/A,,Partly Cloudy,280,2013-06-11 21:53:00
5:53 PM,80.1,48.0,32,29.84,10.0,West,8.1,-,N/A,,Partly Cloudy,270,2013-06-11 22:53:00
6:53 PM,80.1,50.0,35,29.83,10.0,West,5.8,-,N/A,,Clear,280,2013-06-11 23:53:00
7:53 PM,78.1,52.0,40,29.82,10.0,West,6.9,-,N/A,,Clear,270,2013-06-12 00:53:00
8:53 PM,73.9,55.0,52,29.83,10.0,SW,6.9,-,N/A,,Partly Cloudy,230,2013-06-12 01:53:00
9:53 PM,69.1,57.0,65,29.85,10.0,West,4.6,-,N/A,,Partly Cloudy,260,2013-06-12 02:53:00
10:53 PM,64.0,57.0,78,29.86,10.0,WNW,3.5,-,N/A,,Partly Cloudy,290,2013-06-12 03:53:00
11:53 PM,62.1,57.0,84,29.85,10.0,Calm,Calm,-,N/A,,Clear,0,2013-06-12 04:53:00